Home > Weather > Suhl > Past weeks

Flag for Germany Past Weather in Suhl, Thuringia, Germany — Yesterday and Last 2 Weeks

Now
64 °F

Sunny.


Feels Like: 64 °F
Forecast: 56 / 69 °F
Wind: 7 mph from West

Location: Erfurt-Bindersleben

Current Time: Jun 29, 2016 at 10:13:06 PM

Latest Report: Jun 29, 2016 at 9:20 PM


Visibility: 10 mi

Pressure: 29.92 "Hg

Humidity: 56%

Dew Point: 48 °F

Location of SuhlLocation

Past Weather in Suhl — Graph

°F

Suhl Temperature Yesterday

Maximum temperature yesterday: 70 °F (at 4:50 PM)
Minimum temperature yesterday: 55 °F (at 5:50 AM)
Average temperature yesterday: 62 °F

High & Low Weather Summary for the Past Weeks

 TemperatureHumidityPressure
High91 °F (Jun 24, 3:50 PM)100% (Jun 17, 6:50 AM)30.24 "Hg (Jun 17, 6:50 AM)
Low46 °F (Jun 20, 5:20 AM)31% (Jun 23, 4:20 PM)29.53 "Hg (Jun 14, 9:20 PM)
Average64 °F74%29.98 "Hg
* Reported Jun 14 9:20 PM — Jun 29 9:20 PM, Suhl, Weather by CustomWeather, © 2016

Note: Actual official high and low records may vary slightly from our data, if they occured in-between our weather recording intervals... More about our weather records

Advertising

Suhl Weather History for the Previous 24 Hours

Scroll right to see more
 ConditionsComfort  
Time TempWeatherWind HumidityBarometerVisibility
9:20 PM
Wed, Jun 29
64 °FSunny.7 mph56%29.92 "Hg10 mi
8:20 PM66 °FSunny.8 mph56%29.92 "Hg10 mi
7:50 PM68 °FSunny.13 mph53%29.92 "Hg10 mi
7:20 PM70 °FSunny.13 mph53%29.92 "Hg10 mi
6:50 PM72 °FSunny.13 mph44%29.92 "Hg10 mi
6:20 PM73 °FSunny.13 mph41%29.92 "Hg10 mi
5:50 PM72 °FSunny.15 mph41%29.92 "Hg10 mi
5:20 PM73 °FSunny.16 mph41%29.92 "Hg10 mi
4:50 PM73 °FPassing clouds.17 mph41%29.92 "HgN/A
4:20 PM73 °FPassing clouds.18 mph41%29.92 "HgN/A
3:20 PM75 °FPassing clouds.18 mph44%29.92 "HgN/A
2:50 PM73 °FPassing clouds.17 mph47%29.92 "HgN/A
2:20 PM72 °FPassing clouds.16 mph53%29.92 "HgN/A
1:50 PM72 °FPassing clouds.16 mph53%29.92 "HgN/A
1:20 PM72 °FSunny.20 mph50%29.92 "Hg10 mi
12:50 PM72 °FBroken clouds.17 mph50%29.92 "HgN/A
12:20 PM72 °FScattered clouds.17 mph53%29.92 "HgN/A
11:50 AM72 °FScattered clouds.17 mph57%29.92 "HgN/A
11:20 AM72 °FScattered clouds.18 mph57%29.92 "HgN/A
10:20 AM70 °FPassing clouds.17 mph60%29.89 "HgN/A
9:50 AM68 °FBroken clouds.17 mph64%29.92 "HgN/A
9:20 AM68 °FScattered clouds.17 mph69%29.92 "HgN/A
8:50 AM68 °FScattered clouds.17 mph69%29.89 "HgN/A
8:20 AM66 °FPassing clouds.16 mph68%29.89 "HgN/A
7:50 AM64 °FPassing clouds.14 mph78%29.89 "HgN/A
7:20 AM63 °FPassing clouds.13 mph83%29.89 "HgN/A
6:50 AM63 °FPartly sunny.10 mph83%29.89 "HgN/A
6:20 AM63 °FPartly sunny.10 mph83%29.89 "HgN/A
5:20 AM61 °FPartly cloudy.7 mph83%29.89 "HgN/A
4:50 AM61 °FClear.10 mph83%29.89 "Hg10 mi
4:20 AM61 °FClear.7 mph83%29.89 "Hg10 mi
3:50 AM61 °FClear.6 mph83%29.89 "Hg10 mi
3:20 AM61 °FClear.7 mph83%29.89 "Hg10 mi
2:50 AM61 °FPartly cloudy.8 mph83%29.92 "HgN/A
2:20 AM61 °FPartly cloudy.3 mph83%29.92 "HgN/A
1:20 AM61 °FClear.6 mph83%29.95 "Hg10 mi
12:50 AM61 °FLight rain. Partly cloudy.6 mph83%29.95 "HgN/A
12:20 AM61 °FLight rain. Passing clouds.7 mph83%29.95 "HgN/A
11:50 PM
Tue, Jun 28
61 °FClear.7 mph83%29.95 "Hg10 mi
11:20 PM61 °FClear.8 mph83%29.98 "Hg10 mi
10:50 PM61 °FClear.8 mph83%29.98 "Hg10 mi
10:20 PM61 °FSunny.6 mph88%29.98 "Hg10 mi
Weather by CustomWeather, © 2016

See weather overviewHow to use our weather pages